User: anonymous   Login
Location: Caltech
(34.1382°N, 118.1253°W)
Time: 18:15:23
(UTC-08:00)
Language:

Cosmos 2237 Rocket - Orbit

View from above orbital plane
View from above orbital plane
View from above satellite
View from above satellite

Ground track
Ground track

The orbit data is extracted from the following two-line orbital elements,

1 22566U 93016B   14356.04046582  .00001105  00000-0  59628-3 0  2339
2 22566 071.0071 173.0718 0008344 069.2013 291.0003 14.14878916122814
Epoch (UTC): 22 December 2014 00:58:16
Eccentricity: 0.0008344
inclination: 71.0071°
perigee height: 837 km
apogee height: 849 km
right ascension of ascending node: 173.0718°
argument of perigee: 69.2013°
revolutions per day: 14.14878916
mean anomaly at epoch: 291.0003°
orbit number at epoch: 12281

The dashed part of the orbit path shows where the satellite is in the earth's shadow,  

DLR